CAPE
865 612 1024 700 918 736 704 581 219 298 82 115 136 440 648 456 758 349 118 503 178 258 623 557 350 120 212 242 88 262 199 33 258 2 15 23 200 226 404 249 301 369 539 700 819 1010 1174 1700 1772 1715 1902 2018 1894 1825 2126 2161 2343 2548 2771 2872 3004 3142 3235 3282 3359 3311 3395 3286 3174 2876 2688 2532 2712 2756 2776 2729 2701 2735 2782 2805 2830 2774 2642 2420 2425 2164 2124 2086 2270 2302 2006 1861 2131 2468 2453 2398 2546
676 847 1112 936 853 652 707 784 532 494 390 264 37 367 284 424 141 158 117 227 60 592 624 401 328 503 634 208 162 179 159 325 519 226 104 252 225 449 406 379 401 424 604 706 876 1048 1281 1755 2048 1782 1805 1930 2016 2114 2326 2393 2430 2578 2814 2923 3163 3216 3207 3121 3280 3378 3338 3203 3014 2820 2738 2715 2798 2771 2746 2710 2732 2792 2749 2790 2819 2635 2562 2600 2540 2038 2157 2195 1962 2108 1843 2222 2559 2594 2540 2336 2424
766 1192 939 744 786 810 817 712 353 0 8 0 0 52 248 268 82 143 214 184 103 621 494 383 360 488 384 252 180 714 156 220 253 149 304 350 359 435 465 430 463 483 655 703 922 1123 1329 1426 2009 1821 1827 2099 1980 2166 2350 2387 2394 2698 2856 3071 3228 3168 3220 3254 3370 3374 3232 3098 2897 2855 2752 2783 2829 2726 2676 2704 2805 2793 2706 2672 2651 2538 2620 2660 2468 2049 2231 2027 2273 2137 2392 2415 2350 2443 2306 2440 2430
1304 1050 905 796 812 799 988 858 566 170 9 0 0 0 110 94 92 139 123 132 346 545 383 457 418 247 395 314 308 316 234 219 184 190 210 345 337 491 442 491 629 514 674 736 840 1076 1193 1540 2068 1859 1825 2056 2047 2307 2304 2311 2446 2619 2815 3102 3111 3121 3225 3374 3358 3270 3155 3087 3002 2871 2766 2824 2808 2816 2729 2670 2645 2634 2562 2477 2524 2493 2456 2388 2620 2527 2472 2154 2300 2083 2130 2355 2366 2293 2420 2481 2387
1265 1307 902 912 900 900 652 406 294 351 111 3 2 0 316 94 144 337 232 273 375 448 388 446 366 388 386 342 387 348 316 227 242 216 278 545 502 443 477 551 540 582 630 755 943 1114 1290 1767 2096 1712 1902 2001 2055 2212 2321 2431 2618 2753 2875 2944 3078 3156 3167 3196 3238 3089 3042 3010 2935 2851 2817 2837 2844 2768 2754 2814 2720 2600 2504 2491 2448 2428 2566 2572 2450 2500 2366 2369 2425 2239 2035 2181 2393 2448 2454 2500 2438
1236 1184 1181 1284 977 838 516 503 501 320 53 0 12 15 92 84 396 366 356 386 287 292 358 436 488 494 461 583 397 558 323 273 207 303 455 534 516 444 559 714 578 626 676 862 1070 1298 1350 2047 1775 1794 1940 2020 2154 2303 2494 2731 2815 2827 2912 2980 3095 3183 3106 3162 3226 3138 3107 3052 2931 2811 2860 2937 2904 2830 2936 2896 2796 2673 2490 2474 2424 2530 2542 2532 2532 2297 2520 2487 2544 2307 2318 2238 2220 2245 2482 2451 2500
1202 1272 1182 1129 1162 1166 857 569 296 43 220 25 33 68 126 343 415 325 176 192 222 272 401 415 441 338 490 386 292 332 516 581 273 328 545 554 509 536 604 607 657 673 731 927 1154 1339 1716 1865 1755 1896 1996 2006 2243 2356 2624 2794 2880 2958 2988 2884 3117 3156 3022 3182 3202 3110 3083 2985 2818 2808 2868 2873 2844 2994 2928 2877 2708 2526 2612 2537 2560 2714 2672 2620 2729 2628 2630 2474 2426 2374 2324 2309 2177 2139 2009 2440 2352
1258 1148 1132 933 832 633 510 417 308 296 377 96 74 59 111 575 481 220 156 260 282 385 324 304 440 637 560 405 419 602 613 830 567 592 568 551 545 614 602 659 731 729 781 979 1200 1490 1983 1731 1846 1863 1871 1965 2233 2389 2672 2855 2940 3010 3048 3093 3198 3132 3062 3034 3041 3064 2970 2807 2884 2910 2859 2930 2993 2854 2956 2814 2614 2559 2551 2643 2508 2348 2356 2459 2420 2240 2283 2625 2576 2477 2368 2320 2306 2306 2234 2334 2559
1195 968 1154 914 768 576 482 358 316 277 330 290 237 355 512 598 506 202 186 213 384 433 262 411 468 390 635 619 702 692 768 694 642 767 595 593 590 604 656 721 802 802 872 1042 1272 1718 1891 1783 1910 1932 1838 2136 2296 2441 2610 2779 2851 2911 3090 3196 3211 3107 3046 3003 2952 2965 2890 2837 2875 2870 2910 2925 2908 2892 2858 2658 2502 2423 2661 2556 2231 2170 2250 2404 2411 2593 2556 2560 2833 2818 2722 2464 2303 2314 2400 2299 2244
1128 1028 1227 913 508 428 282 4 36 8 268 258 322 218 577 615 531 430 350 316 327 372 364 438 476 493 620 561 599 789 683 702 662 576 611 617 612 642 703 771 804 868 928 1068 1315 1711 1755 1956 1957 1902 1970 2102 2255 2519 2622 2681 2710 2830 3046 3136 3182 3010 2947 2945 2926 2838 2736 2763 2888 2845 2910 2865 2812 2844 2800 2564 2541 2574 2509 2419 2404 2338 2292 2282 2477 2620 2711 2762 2944 3010 2752 2783 2566 2324 2317 2397 2168
948 686 953 938 548 266 198 20 0 0 3 44 248 76 597 582 551 482 372 313 357 481 596 561 626 549 548 613 750 819 694 627 548 593 538 530 584 602 718 739 808 880 946 1074 1368 1687 1771 1923 2032 1902 2024 2083 2357 2585 2625 2779 2810 2840 2969 3098 3154 3090 2899 2833 2826 2772 2712 2817 2792 2935 2876 2774 2792 2702 2610 2557 2599 2625 2376 2424 2336 2419 2308 2166 2398 2456 2720 2828 2772 2850 2915 2941 2734 2693 2535 2461 2490
799 837 982 678 372 318 311 313 69 24 4 0 0 211 554 564 517 442 351 362 524 604 687 516 597 532 601 570 632 794 643 598 545 518 532 562 616 649 704 766 824 862 977 1109 1430 1653 1679 1822 2056 1970 2046 2104 2276 2558 2675 2782 2820 2784 2997 3057 3164 3117 2991 2842 2738 2681 2769 2846 2822 2848 2767 2775 2790 2670 2624 2650 2584 2358 2364 2396 2250 2303 2446 2650 2578 2613 2720 2966 2794 2632 2686 2738 2742 2891 2819 2726 2677
1097 942 902 550 614 472 430 382 336 432 170 0 0 200 504 490 453 418 374 379 589 610 640 648 581 556 487 607 817 690 668 598 578 543 543 574 582 639 742 755 811 858 989 1148 1449 1646 1652 1739 1993 1940 2052 2212 2294 2496 2680 2751 2711 2740 2908 3053 3152 3138 3043 2872 2805 2768 2806 2837 2876 2859 2775 2725 2772 2755 2716 2715 2680 2696 2559 2622 2496 2546 2535 2524 2699 2591 2480 2835 2632 2776 2719 2800 2756 2795 2909 2590 2694
1152 1073 926 910 669 670 606 461 292 152 0 0 37 357 464 450 437 440 422 512 589 590 617 679 575 681 776 731 776 658 636 616 588 538 544 542 576 664 732 770 784 836 974 1182 1382 1604 1763 1764 1929 1954 2222 2205 2178 2410 2524 2526 2650 2694 2893 2962 3098 3129 3114 2962 2823 2802 2825 2866 2901 2854 2852 2856 2788 2816 2810 2747 2766 2874 2769 2656 2698 2885 2340 2461 2750 2555 2596 2525 2678 2518 2680 2279 2614 2680 2764 2826 2667
1150 1195 1118 926 797 638 420 286 119 11 0 120 350 442 474 660 448 450 440 550 576 761 788 660 764 354 595 700 595 533 615 620 577 526 493 522 618 696 726 747 780 846 1017 1205 1307 1520 1871 1786 2093 1933 1986 2098 2314 2083 2137 2534 2716 2788 2896 2954 2965 3058 3022 2838 2816 2808 2749 2814 2870 2854 2883 2823 2818 2858 2782 2811 2824 2797 2844 2650 2765 2384 2336 2498 2439 2706 2659 2836 2369 2708 2548 2332 2607 2614 2670 2717 2884
1004 1093 1043 955 730 511 364 176 14 0 0 408 476 528 613 603 508 547 532 566 606 816 696 692 712 550 534 590 516 532 638 608 520 482 501 606 698 747 764 781 804 929 1062 1192 1245 1410 1742 2030 2004 1991 1884 2000 2371 2197 1994 2072 2300 2704 2898 2869 2963 2912 2990 2841 2842 2820 2788 2723 2812 2866 2938 2920 2796 2883 2900 3029 2998 2905 3021 2834 2666 2354 2146 2189 2349 2552 2769 2784 2928 2738 2655 2498 2846 2800 2862 2945 2898
1056 1122 1140 1004 771 464 356 21 0 0 0 530 559 606 698 753 628 755 642 754 787 805 692 650 732 440 656 690 656 637 609 555 461 510 626 654 694 749 847 923 989 1086 1147 1179 1218 1378 1595 1940 1996 2001 1770 1950 2274 2292 2197 2065 2252 2477 2632 2838 2892 2974 3006 2892 2736 2751 2731 2643 2706 2795 2808 3212 2560 2729 2980 2772 3052 3666 2718 2789 2701 2418 2438 2340 2212 2488 2568 2805 2694 3192 3006 3039 2824 2695 2931 3019 2828
1293 1394 1030 942 857 666 392 37 0 0 390 598 654 635 716 806 730 759 772 748 808 750 691 694 666 714 739 671 672 702 559 489 561 639 690 665 657 716 811 939 1042 978 1100 1209 1273 1379 1573 1801 1937 1966 1904 1932 2217 2336 2273 2178 2228 2438 2235 2545 2815 2788 2925 2733 2816 2386 2610 2249 2464 2550 2612 3024 2532 2514 2483 3547 3218 3508 3382 2975 2739 2704 2881 2880 2745 2328 2188 2659 3008 3068 3064 2802 2795 3009 3103 3602 3447
1526 1326 1135 1013 776 764 391 220 16 123 439 635 698 684 723 763 754 814 794 805 758 686 702 641 797 857 819 816 827 732 570 514 623 718 758 709 691 691 753 895 952 1026 1078 1211 1298 1434 1546 1724 1880 2013 1870 1996 2150 2248 2258 2169 2120 2155 2038 2330 2444 2801 2746 2932 2289 2711 2316 2177 2328 2239 2675 2582 2634 2463 2623 2884 3491 3196 3523 3008 2743 2839 2956 3004 2896 2466 2362 2803 3129 3271 3337 3070 2883 2850 3401 3135 3004
1410 1227 1070 917 722 522 319 176 53 0 251 630 734 732 722 801 834 877 775 849 733 671 614 700 822 930 928 899 881 792 598 548 658 808 808 724 690 657 696 825 870 1011 1014 1135 1276 1483 1574 1711 1865 1982 1868 2037 2154 2194 2185 2102 2090 2065 1958 2036 2079 2367 2352 2520 2195 2408 2293 2351 2354 2336 2410 2466 2634 2383 3196 3062 2964 3308 2903 3444 3250 3103 3185 3467 3204 3318 3132 3152 3210 3592 3794 3932 4300 3687 3338 3109 2966
1648 1286 1023 924 722 684 536 330 98 48 352 658 722 760 709 789 920 842 775 798 704 667 602 627 818 968 953 953 929 830 660 604 690 854 874 756 691 639 656 737 801 940 1014 1141 1348 1514 1624 1732 1866 1948 1945 2041 2126 2108 2078 2071 2038 1989 2004 1942 2082 2133 2142 2290 2168 2376 2342 2380 2389 2413 2365 2450 2436 2407 2331 2325 2646 2842 2823 2761 2732 2687 2708 2752 3315 2750 2352 2288 2738 2328 2421 2696 2472 2510 2925 2667 2369
1268 1427 1290 977 709 687 524 368 22 0 379 695 714 686 716 803 948 819 779 625 686 680 635 602 818 1022 997 966 961 864 709 676 727 882 932 830 729 659 628 681 751 928 1069 1170 1317 1475 1674 1832 1938 1948 1955 2038 2027 2033 2000 2004 1978 1986 2007 2013 2093 2116 2193 2274 2248 2312 2409 2402 2420 2438 2476 2333 2374 2400 2326 2216 2196 2306 2595 2828 2900 2914 2697 2800 2906 2822 2253 1970 2116 2181 2367 2249 1978 2036 2302 2282 2199
1057 851 863 1094 1072 906 703 340 0 2 285 685 713 675 733 890 976 892 707 502 551 691 679 578 891 1041 1037 980 930 862 766 748 762 887 965 902 775 674 636 650 726 906 1096 1156 1294 1458 1668 1796 1930 1939 1957 1989 1954 1937 1929 1986 1970 1962 1988 2024 2089 2144 2224 2293 2335 2306 2399 2462 2451 2430 2360 2322 2351 2362 2294 2282 2180 2189 2333 2527 2805 2932 2825 2622 2781 2837 2314 1941 2117 2197 2240 2020 1785 1840 2020 1963 2031
745 658 530 468 330 444 406 77 26 0 106 574 646 694 797 882 933 866 711 496 482 700 702 738 941 1043 1044 988 872 820 818 817 800 903 995 948 834 741 660 612 658 816 1016 1099 1224 1406 1729 1720 1836 1848 1895 1915 1879 1880 1884 1898 2014 1925 1964 2234 2304 2154 2207 2284 2356 2360 2386 2446 2473 2400 2618 2318 2321 2286 2278 2202 2140 2154 2204 2292 2419 2608 2623 2460 2450 2543 2429 2040 2078 2149 2233 2086 1959 1710 1460 1443 1189
606 567 462 402 343 155 90 47 21 1 46 152 518 682 814 830 859 821 725 624 684 761 716 912 1004 1051 1018 960 832 821 848 859 827 928 992 962 874 850 732 562 586 751 905 1032 1143 1260 1429 1613 1717 1781 1869 1951 1803 1808 1850 1862 2013 1941 1958 2064 2208 2388 2284 2237 2325 2391 2404 2400 2384 2362 2522 2338 2340 2251 2171 1986 1910 1961 2072 2137 2066 2066 2214 2377 2336 2310 2276 2228 2143 2145 2100 2138 1854 1496 1218 1121 1296
355 439 402 384 362 97 2 0 0 6 8 170 472 616 729 835 734 756 732 669 763 821 823 994 1024 985 947 902 884 934 924 913 916 1016 1046 990 948 894 825 627 505 641 789 932 1036 1156 1298 1406 1566 1655 1750 1767 1758 1728 1794 1804 1931 1948 1961 1994 2114 2467 2269 2233 2249 2316 2366 2331 2236 2250 2252 2265 2306 2225 2030 1830 1726 1811 1952 2030 1952 1962 2028 2202 2283 2282 2074 2150 2180 2092 1892 1933 1540 1176 1302 1863 2086
98 192 311 203 169 34 9 0 1 3 0 148 408 536 652 751 630 699 724 748 804 846 929 1062 1059 953 918 946 1001 1022 984 979 999 1063 1075 1016 999 936 890 735 497 495 665 834 912 1020 1164 1298 1424 1544 1606 1732 1648 1666 1708 1714 1809 1910 1859 1938 2009 2112 2161 2150 2140 2170 2226 2257 2198 2081 2137 2171 2184 2101 1988 1833 1726 1782 1876 1960 1883 1854 1957 2128 2266 2236 1952 2188 2173 2092 1790 1477 1286 1290 1316 1372 1142
61 0 0 0 0 0 0 0 3 2 0 54 287 422 530 679 590 500 695 870 817 898 1011 1105 1096 1016 957 1003 1064 1063 1035 1013 1022 1074 1128 1056 1009 968 920 828 574 433 537 715 818 905 1019 1222 1294 1386 1477 1591 1568 1514 1666 1628 1670 1808 1874 1819 1859 1966 2018 2047 2046 2026 2076 2149 2160 2051 1968 2053 2369 2157 1994 1853 1787 1829 1913 1956 1710 1738 1865 2013 2017 1940 1897 2229 2196 1885 1561 1408 1265 1356 1366 936 1107
0 0 0 0 0 0 0 5 4 0 0 1 167 266 411 577 577 466 705 882 900 940 1053 1130 1096 1081 1041 1031 1090 1113 1099 1069 1058 1101 1161 1106 1036 966 930 830 635 414 405 566 686 785 926 1146 1194 1248 1348 1452 1476 1442 1485 1515 1538 1643 1770 1765 1771 1814 1852 1940 1952 1926 1924 1994 2037 2039 1846 1889 2306 2257 2128 2024 2098 1856 1951 1988 1536 1766 1780 1890 1851 1944 1953 2084 2098 1872 1764 2150 1460 1364 1183 899 1014
0 0 0 0 0 0 0 11 6 2 6 0 10 174 231 444 476 489 919 901 912 964 1062 1138 1106 1074 1076 1067 1100 1155 1146 1133 1114 1127 1171 1156 1071 1006 940 870 720 427 381 451 563 716 894 1135 1205 1134 1235 1336 1437 1348 1340 1409 1428 1482 1633 1699 1692 1712 1701 1789 1826 1771 1823 1743 1804 1847 1761 1781 2203 2086 2114 2110 2025 1980 2052 2074 1680 1507 1610 1690 1677 1915 2023 2035 1874 1660 1502 1434 2463 1503 1116 1029 494
0 0 0 0 0 0 2 17 6 2 0 0 12 26 1 23 92 810 914 942 912 966 1044 1124 1142 1123 1121 1085 1116 1165 1184 1172 1165 1162 1174 1176 1124 1056 996 937 859 592 468 396 500 629 969 1080 1201 1103 1328 1259 1574 1334 1424 1304 1344 1358 1421 1519 1584 1612 1588 1608 1662 1633 1620 1592 1560 1578 1656 1784 2067 2041 2053 2084 2048 2004 2034 2053 1745 1528 1585 1787 1757 1868 1932 1821 1671 1334 1550 1314 1040 1210 1050 1166 674
0 0 0 0 0 0 0 0 4 7 0 0 0 0 0 0 0 849 962 932 916 924 1026 1075 1135 1166 1200 1150 1137 1168 1191 1191 1188 1166 1158 1165 1170 1142 1072 1023 920 729 503 420 440 566 830 1050 1325 1116 1211 1204 1329 1379 1296 1286 1394 1312 1288 1460 1369 1480 1551 1502 1508 1556 1536 1493 1504 1447 1557 1784 2056 2024 2022 2058 2037 1992 1973 1980 1619 1564 1808 1993 1855 1894 1813 1662 1452 1394 1766 1424 1349 1173 1240 793 680
0 0 0 0 0 0 0 0 6 2 6 0 0 0 0 0 17 826 958 965 894 910 1005 1038 1068 1152 1230 1217 1187 1178 1180 1174 1183 1189 1176 1188 1202 1195 1169 1116 996 794 662 491 453 562 756 1015 1531 1156 1131 1178 1208 1330 1295 1284 1376 1350 1268 1246 1236 1324 1440 1467 1458 1453 1475 1444 1408 1470 1527 1767 2114 2021 1995 2026 2013 1970 1915 1858 1450 1506 2005 2000 1929 1814 1778 1530 1449 1425 1457 1550 1503 1488 1134 860 632
0 0 0 0 0 1 0 1 2 0 0 0 0 0 0 16 134 852 956 976 903 917 1000 1023 1031 1084 1168 1215 1208 1205 1181 1168 1180 1184 1196 1210 1224 1227 1206 1293 1164 1139 967 736 541 590 736 984 1288 1234 1156 1165 1144 1240 1306 1289 1374 1440 1353 1224 1464 1252 1372 1439 1458 1460 1441 1434 1443 1488 1534 1780 2124 2065 2002 2018 2010 1932 1884 1802 1401 1571 1942 1989 1888 1824 1774 1618 1458 1462 1517 1547 1526 1458 1325 1055 876
0 0 0 0 0 5 6 2 0 2 0 0 0 0 0 176 297 787 936 954 928 929 1012 1036 1042 1058 1096 1128 1143 1165 1177 1170 1170 1177 1199 1230 1236 1245 1230 1218 1205 1230 1200 1072 777 694 776 978 1260 1457 1403 1226 1138 1142 1293 1282 1350 1466 1465 1404 1259 1283 1250 1369 1436 1480 1478 1468 1503 1576 1643 1730 2173 2142 2069 2032 2000 1939 1859 1809 1488 1634 1879 1852 1782 1705 1771 1730 1694 1696 1662 1558 1450 1388 1300 1298 1082
0 0 0 0 0 0 0 2 1 0 0 0 0 0 0 258 478 698 863 936 911 912 997 1046 1053 1051 1079 1080 1074 1088 1114 1134 1132 1152 1199 1224 1244 1257 1256 1251 1262 1274 1284 1240 1092 888 904 1033 1230 1419 1521 1335 1230 1130 1232 1292 1309 1444 1516 1541 1534 1430 1322 1374 1381 1440 1499 1579 1652 1698 1720 1716 1904 2298 2123 2080 2020 1924 1792 1772 1579 1758 1942 1940 1880 1784 1720 1722 1734 1659 1557 1568 1442 1380 1670 1198 845
0 0 0 0 0 0 0 0 0 0 0 0 0 0 0 87 571 666 793 891 887 852 941 1044 1065 1072 1077 1088 1064 1048 1063 1092 1080 1110 1162 1206 1225 1226 1244 1273 1301 1292 1296 1292 1256 1099 1017 1108 1320 1412 1540 1439 1366 1234 1204 1251 1264 1345 1431 1484 1512 1558 1569 1574 1468 1417 1507 1660 1758 1758 1752 1765 1817 2247 2287 2133 2081 2183 1933 1767 1688 1874 2044 1993 1909 1792 1681 1680 1634 1595 1655 1556 1485 1433 1404 946 668
0 0 0 0 0 0 0 0 0 0 0 0 0 0 0 6 533 667 752 820 829 825 873 972 1058 1076 1084 1086 1074 1050 1056 1014 1018 1040 1094 1140 1202 1196 1187 1247 1275 1275 1281 1288 1290 1262 1142 1140 1274 1395 1525 1521 1446 1330 1215 1264 1216 1270 1377 1430 1478 1487 1529 1571 1436 1444 1529 1692 1772 1776 1762 1759 1818 2126 2448 2169 2104 2066 2010 1818 1814 2054 2060 1968 1878 1835 1846 1884 1888 1786 1694 1589 1545 1451 1295 796 538
0 0 0 0 0 0 0 0 0 0 0 0 0 0 0 0 367 717 736 761 807 795 808 889 980 1038 1058 1071 1074 1054 1040 1027 1033 1044 1050 1103 1169 1176 1140 1214 1256 1265 1288 1294 1312 1300 1261 1197 1236 1348 1476 1538 1505 1410 1251 1248 1215 1247 1295 1389 1450 1494 1525 1566 1497 1479 1569 1673 1768 1771 1756 1728 1840 2055 2340 2354 2132 2079 2113 1985 2054 2102 2040 1961 1912 1906 1921 1980 2014 1956 1724 1605 1556 1356 1078 756 431
0 0 0 0 0 0 0 0 0 0 0 0 0 0 0 20 318 708 748 760 746 758 747 807 870 943 1001 1020 1048 1061 1020 1037 1049 1031 1037 1042 1106 1128 1112 1162 1229 1260 1280 1290 1308 1305 1298 1284 1247 1302 1425 1510 1515 1475 1476 1240 1254 1229 1266 1342 1460 1487 1554 1582 1612 1558 1558 1608 1689 1703 1612 1769 1863 2040 2250 2336 2352 2168 2187 2126 2145 2135 2070 2017 1977 1939 1911 1980 2101 2025 1695 1633 1493 1184 690 538 521
0 0 0 0 0 0 0 0 0 0 0 0 0 0 0 0 227 632 748 758 714 737 778 728 764 839 943 1026 988 990 986 1005 1041 1022 991 996 1018 1066 1091 1110 1166 1205 1230 1266 1289 1303 1293 1277 1274 1294 1371 1476 1504 1494 1456 1332 1337 1258 1244 1324 1411 1506 1568 1519 1546 1531 1529 1551 1528 1472 1582 1816 1910 2028 2200 2336 2454 2281 2237 2211 2181 2157 2129 2095 2058 1994 1956 1976 2080 2081 1766 1499 1335 919 560 422 262
0 0 0 0 0 0 0 0 0 0 0 0 0 0 0 0 11 241 598 765 756 756 739 718 728 794 856 889 933 932 932 942 988 1014 998 979 978 1004 1034 1059 1074 1120 1166 1207 1250 1285 1288 1271 1257 1262 1312 1389 1464 1491 1484 1424 1318 1268 1230 1278 1334 1383 1458 1458 1508 1536 1512 1502 1604 1468 1556 1881 1982 2058 2126 2303 2401 2426 2333 2284 2266 2229 2192 2156 2080 2025 1953 1964 2075 2097 1902 1564 1232 718 526 1 0
0 0 0 0 0 0 0 0 0 0 0 0 0 0 0 0 0 27 318 650 760 753 739 724 704 743 800 832 880 910 896 906 915 950 978 977 956 951 989 1023 1034 1060 1118 1160 1207 1261 1275 1252 1222 1220 1262 1346 1433 1467 1479 1447 1380 1269 1216 1222 1256 1308 1377 1448 1499 1540 1514 1492 1523 1590 1617 1866 1997 2108 2184 2238 2374 2520 2398 2357 2346 2310 2269 2199 2088 2022 1946 1935 2067 2150 1995 1545 963 594 145 0 0
0 0 0 0 0 0 0 0 0 0 0 0 0 0 0 0 0 0 77 476 606 686 700 698 688 700 757 796 822 857 859 862 871 899 904 914 924 913 933 978 1016 1038 1072 1109 1154 1182 1217 1219 1201 1206 1223 1270 1358 1433 1460 1440 1394 1318 1252 1208 1215 1242 1262 1358 1448 1544 1514 1515 1548 1642 1707 1805 2032 2077 2186 2236 2363 2494 2500 2407 2382 2343 2306 2225 2057 1948 1902 1961 2128 2175 1942 1218 635 233 0 0 0
0 0 0 0 0 0 0 0 0 0 0 0 0 0 0 0 0 0 17 212 420 558 639 630 623 644 701 755 775 788 796 800 828 830 839 826 856 875 866 896 949 981 1013 1065 1121 1163 1188 1218 1231 1233 1231 1236 1279 1357 1406 1434 1411 1338 1274 1223 1206 1215 1226 1273 1336 1416 1481 1548 1582 1633 1701 1761 1978 2091 2116 2205 2331 2436 2592 2448 2382 2335 2278 2142 2125 1883 1960 2064 2147 2186 1618 695 112 0 0 0 0
0 0 0 0 0 0 0 0 0 0 0 0 0 0 0 0 0 0 0 147 263 397 512 524 522 554 598 668 730 729 726 715 738 784 772 760 734 764 789 784 832 924 983 1030 1086 1133 1170 1199 1222 1214 1224 1215 1224 1265 1333 1382 1395 1343 1266 1220 1176 1203 1209 1253 1294 1314 1374 1496 1559 1622 1731 1780 1906 2065 2122 2146 2307 2364 2562 2426 2366 2310 2260 2177 2148 1968 2068 2124 2161 2145 1365 141 0 1 0 4 0
0 0 0 0 0 0 0 0 0 0 0 0 0 0 0 0 0 0 0 11 169 230 320 304 419 413 459 542 619 665 648 644 635 699 737 722 675 647 679 696 716 805 896 962 1014 1048 1090 1129 1157 1164 1170 1162 1156 1194 1274 1319 1339 1327 1261 1210 1180 1153 1159 1194 1248 1292 1316 1421 1532 1631 1741 1839 1890 2036 2099 2160 2244 2368 2445 2429 2352 2294 2255 2218 2198 2117 2144 2151 2175 2040 1030 6 8 0 0 0 154
0 0 0 0 0 0 0 0 0 0 0 0 0 0 0 0 0 0 0 0 8 60 104 119 123 104 366 396 478 556 578 566 556 566 652 679 648 607 585 598 619 684 788 875 938 980 1014 1058 1084 1108 1105 1106 1104 1133 1211 1265 1284 1304 1273 1199 1167 1131 1100 1112 1162 1210 1278 1347 1460 1570 1683 1779 1880 2010 2092 2160 2223 2309 2474 2420 2333 2282 2269 2246 2218 2244 2210 2164 2094 1862 705 10 14 0 0 4 7
0 0 0 0 0 0 0 0 0 0 0 0 0 0 0 0 0 0 0 0 0 0 21 49 59 51 30 218 330 396 482 505 476 465 504 570 574 353 244 542 360 605 675 767 856 919 965 1000 1029 1056 1076 1071 1084 1094 1176 1233 1246 1266 1272 1221 1163 1117 1076 1056 1080 1121 1190 1270 1361 1454 1546 1714 1830 1934 2072 2148 2178 2273 2396 2394 2358 2330 2337 2322 2282 2371 2327 2067 1906 1534 401 18 16 1 0 0 0
0 0 0 0 0 0 0 0 0 0 0 0 0 0 0 0 0 0 0 0 0 0 0 6 24 23 0 6 40 238 317 393 410 243 230 279 367 205 201 258 313 565 592 646 736 846 919 966 1008 1030 1056 1056 1058 1068 1128 1197 1232 1244 1263 1252 1195 1111 1061 1035 1050 1072 1116 1196 1270 1340 1405 1597 1746 1882 2035 2144 2188 2223 2270 2360 2342 2359 2406 2394 2390 2494 2349 1825 1623 1156 76 55 17 4 0 0 0
0 0 0 0 0 0 0 0 0 0 0 0 0 0 0 0 0 0 0 0 0 0 0 0 0 0 0 0 2 22 50 76 289 296 152 182 190 166 163 194 256 323 547 576 628 734 833 914 975 1028 1037 1034 1036 1050 1079 1160 1207 1232 1237 1250 1226 1146 1096 1056 1067 1073 1080 1110 1169 1233 1290 1392 1604 1741 1901 2080 2119 2176 2234 2294 2356 2387 2425 2424 2475 2608 2316 1575 1287 834 116 63 64 5 0 0 0
0 0 0 0 0 0 0 0 0 0 0 0 0 0 0 0 0 0 0 0 0 0 0 0 0 0 0 0 0 0 6 24 38 61 94 114 130 104 112 142 188 257 327 439 572 628 730 835 915 988 1015 1015 1014 1020 1056 1140 1191 1197 1200 1216 1228 1194 1171 1128 1101 1096 1071 1061 1096 1141 1205 1265 1472 1649 1811 1965 2079 2164 2207 2269 2283 2358 2406 2416 2529 2637 2126 1284 910 526 45 44 399 405 0 0 0
0 0 0 0 0 0 0 0 0 0 0 0 0 0 0 0 0 0 0 0 0 0 0 0 0 0 0 0 0 0 0 0 8 32 59 94 81 70 75 98 143 216 266 324 429 572 631 744 828 897 952 975 996 1013 1037 1112 1166 1167 1174 1180 1206 1207 1190 1168 1156 1136 1104 1080 1075 1116 1186 1234 1377 1620 1793 1925 2011 2104 2161 2228 2268 2290 2331 2439 2585 2561 1876 1207 631 233 49 17 451 24 6 0 0
0 0 0 0 0 0 0 0 0 0 0 0 0 0 0 0 0 0 0 0 0 0 0 0 0 0 0 0 0 0 0 0 0 6 32 55 68 86 62 66 97 172 248 293 356 394 562 660 741 819 863 936 977 998 1012 1076 1147 1174 1177 1168 1181 1203 1205 1200 1182 1157 1135 1112 1118 1120 1240 1284 1371 1599 1786 1916 1962 2041 2111 2191 2220 2226 2257 2444 2590 2351 1747 1167 585 479 441 416 14 4 16 4 0
0 0 0 0 0 0 0 0 0 0 0 0 0 0 0 0 0 0 0 0 0 0 0 0 0 0 0 0 0 0 0 0 0 0 0 5 34 58 60 61 66 106 240 278 312 337 425 570 679 752 817 875 940 961 996 1105 1125 1180 1189 1187 1183 1194 1205 1209 1198 1177 1150 1133 1137 1142 1280 1350 1390 1583 1792 1830 1928 1997 2045 2155 2180 2203 2266 2472 2515 2183 1632 1090 769 680 587 474 424 2 4 13 4
0 0 0 0 0 0 0 0 0 0 0 0 0 0 0 0 0 0 0 0 0 0 0 0 0 0 0 0 0 0 0 0 0 0 0 0 3 27 42 54 55 69 136 216 264 299 361 500 671 716 768 819 874 931 1069 1125 1146 1184 1212 1196 1194 1190 1197 1207 1208 1187 1181 1156 1159 1193 1298 1326 1412 1562 1685 1765 1850 1920 1993 2082 2086 2194 2319 2453 2430 1996 1520 1099 956 900 838 655 427 3 1 8 11
0 0 0 0 0 0 0 0 0 0 0 0 0 0 0 0 0 0 0 0 0 0 0 0 0 0 0 0 0 0 0 0 0 0 0 0 0 1 17 32 48 46 82 189 231 299 354 447 580 716 762 789 841 893 947 1131 1168 1206 1281 1242 1224 1217 1220 1213 1222 1209 1196 1201 1231 1266 1302 1355 1379 1477 1569 1688 1782 1835 1903 1966 2019 2068 2225 2407 2326 1839 1447 1178 1091 1045 986 868 604 4 3 6 8
0 0 0 0 0 0 0 0 0 0 0 0 0 0 0 0 0 0 0 0 0 0 0 0 0 0 0 0 0 0 0 0 0 0 0 0 0 0 0 5 16 19 30 113 213 288 333 441 532 680 781 813 827 869 911 1016 1224 1240 1268 1294 1281 1264 1256 1242 1235 1236 1234 1269 1324 1359 1387 1408 1404 1402 1487 1615 1699 1793 1847 1886 1935 2020 2146 2258 2176 1794 1390 1224 1169 1129 1077 1007 848 545 352 8 2
Wind_Speed
11 8 8 8 6 7 8 11 11 10 nan 11 11 9 11 9 9 10 9 7 7 8 5 1 0 3 8 11 nan 11 18 nan 16 nan nan nan 8 5 7 6 5 4 4 6 5 4 6 4 7 9 9 9 10 10 10 10 10 11 11 11 10 10 11 11 12 12 11 11 11 10 10 10 9 8 7 7 7 6 6 6 5 5 4 4 6 8 4 3 4 3 2 4 2 1 1 1 1
7 8 7 7 6 6 10 11 11 10 11 12 nan 8 11 8 9 11 11 10 nan 8 5 1 3 8 9 4 5 9 15 15 14 10 11 9 5 5 4 4 3 1 3 3 4 4 5 5 7 9 11 11 11 11 10 10 11 10 10 10 11 11 11 12 12 12 11 11 11 11 10 10 9 8 8 8 8 7 7 6 5 5 4 5 6 7 5 3 4 5 4 5 2 0 1 1 1
6 6 6 7 7 11 9 11 11 nan nan nan nan nan 9 9 nan 10 13 11 10 7 5 2 3 7 9 9 11 13 13 10 7 7 6 4 4 6 3 3 2 1 0 3 3 4 5 3 6 10 12 12 11 12 11 11 11 10 11 10 11 11 12 12 12 12 12 11 11 11 10 10 9 9 9 9 9 8 7 7 6 5 5 5 5 6 6 5 5 7 5 3 3 2 1 1 1
3 4 6 9 9 9 11 10 10 11 nan nan nan nan 11 nan nan 12 10 7 8 8 7 5 5 15 10 13 10 8 7 6 7 3 4 8 10 3 2 2 2 1 2 3 3 4 5 2 6 10 13 12 12 12 12 11 11 11 11 11 11 12 11 11 11 11 11 11 11 11 11 11 11 10 10 10 9 8 8 6 5 5 5 4 4 3 2 3 3 5 6 5 3 1 1 2 2
3 5 4 9 11 10 8 10 10 10 13 nan nan nan 12 nan 11 7 7 6 7 8 9 8 9 14 12 7 10 7 7 3 3 4 3 6 4 2 1 1 1 2 1 3 3 3 3 5 6 10 12 13 13 13 12 11 11 10 10 11 11 11 11 11 11 11 10 10 11 11 11 11 11 11 10 10 9 8 7 6 5 4 4 4 4 2 1 1 1 2 3 3 2 2 1 1 2
1 2 6 8 7 6 9 11 11 12 nan nan nan nan nan nan 8 4 4 4 4 8 8 9 11 9 11 12 9 3 5 3 6 3 2 3 2 2 1 1 2 1 1 2 2 2 1 6 9 11 12 13 13 13 12 10 10 10 10 11 11 10 10 10 10 10 9 10 10 11 11 11 11 11 11 10 9 8 7 5 4 3 3 3 3 3 1 1 1 2 3 3 3 3 3 2 2
1 1 3 5 5 4 9 10 13 nan 15 nan nan nan 5 6 4 2 3 3 8 7 11 9 3 4 7 10 5 3 5 6 6 4 1 4 3 3 3 1 2 2 2 2 2 1 2 9 12 12 13 13 13 13 11 10 10 10 10 10 10 9 9 8 9 9 9 9 10 10 10 10 11 11 11 10 9 7 6 5 3 2 2 2 2 1 1 1 1 2 2 2 3 5 5 4 3
3 5 3 3 5 6 9 11 13 7 11 nan nan nan 4 2 3 2 4 6 5 5 5 4 6 5 7 10 6 4 4 4 6 7 8 7 5 4 3 2 2 1 2 2 2 1 7 12 13 13 13 13 13 12 10 9 9 9 9 9 9 8 8 8 8 8 9 9 9 9 9 10 10 10 10 9 8 7 6 5 4 3 3 2 2 1 2 2 1 1 1 3 4 3 3 3 3
4 7 5 4 6 6 11 12 11 8 11 8 8 6 2 2 1 1 3 8 7 4 3 3 5 3 2 6 7 4 4 2 8 11 10 9 8 6 2 3 3 2 3 3 2 2 3 12 14 13 13 12 12 10 9 9 8 9 8 8 8 8 8 8 8 8 8 8 8 9 9 10 9 9 9 8 6 5 5 4 5 5 4 5 4 4 3 3 2 1 1 3 5 5 4 3 4
5 8 6 5 4 10 10 nan nan nan 8 7 6 4 1 1 1 2 2 4 7 2 6 5 5 2 3 6 5 4 2 4 9 10 11 10 8 5 4 4 5 7 5 4 3 3 3 12 14 13 13 12 11 10 9 9 9 9 8 8 8 9 8 8 7 8 8 9 9 9 9 9 9 9 8 7 6 5 6 6 7 7 8 8 7 6 6 5 4 4 2 3 4 6 6 5 4
7 7 7 7 7 9 8 nan nan nan nan nan 7 nan 4 3 2 3 6 6 7 4 4 1 4 2 3 5 8 5 1 3 10 12 11 10 8 8 5 4 5 7 9 8 5 4 4 5 13 13 13 12 11 10 9 9 9 9 9 9 9 9 8 8 8 8 9 10 10 10 9 10 10 10 9 9 8 8 9 10 10 11 12 11 10 10 10 9 8 7 5 4 4 4 6 6 5
8 6 6 7 7 5 6 6 nan nan nan nan nan 3 4 8 5 3 3 2 8 4 6 5 5 1 6 2 6 1 1 2 7 11 11 10 7 7 5 4 6 6 9 10 8 5 3 3 3 11 13 12 11 10 9 10 10 9 9 8 8 8 8 9 9 10 11 11 11 10 11 12 12 12 12 12 12 12 13 14 14 14 15 15 14 13 12 12 10 9 8 7 7 6 7 7 6
5 5 6 6 9 6 8 9 9 6 8 nan nan 4 7 9 4 1 2 5 7 6 7 8 8 3 2 2 2 2 2 2 5 10 13 8 7 7 6 6 6 7 8 9 9 5 4 2 1 3 7 12 10 10 10 10 10 9 9 8 8 9 9 10 11 12 12 12 12 12 13 14 14 15 15 16 15 16 17 18 18 18 18 19 18 16 15 14 13 12 11 12 12 12 11 12 11
5 4 4 9 7 10 10 12 7 4 nan nan nan 6 6 5 2 5 3 4 9 9 7 4 4 2 2 3 4 4 2 2 5 8 9 9 7 7 8 5 8 8 9 9 8 5 4 2 1 2 4 4 4 7 10 10 9 9 8 8 9 9 10 12 12 13 13 13 14 15 15 16 16 16 17 18 18 19 20 21 22 22 21 21 21 19 18 17 16 16 15 15 15 16 15 15 14
6 5 5 7 11 8 11 10 9 nan nan 1 1 8 2 6 6 5 10 7 8 5 1 1 5 1 8 10 7 9 6 6 6 7 8 9 9 8 8 6 8 9 9 8 6 4 4 4 1 1 2 3 3 3 2 5 9 9 9 9 10 10 12 13 13 13 14 15 16 16 16 17 17 18 19 19 20 21 22 23 24 24 23 23 21 21 20 20 19 18 17 17 17 17 17 17 16
4 7 6 7 10 7 13 11 nan nan nan 4 5 6 4 4 2 8 6 2 1 1 5 4 8 5 3 7 2 10 12 9 6 5 7 10 9 8 7 7 7 8 8 7 5 2 2 3 1 2 2 4 3 3 2 3 7 9 9 10 11 11 13 13 14 15 16 17 18 17 17 17 18 19 20 21 22 23 24 23 24 25 24 23 22 21 21 21 21 19 18 19 20 20 20 20 19
4 7 7 5 13 5 12 nan nan nan nan 8 10 10 5 3 3 5 0 1 10 6 4 3 5 5 3 4 9 11 13 12 7 7 8 8 8 7 6 7 7 8 7 5 3 2 1 0 0 2 4 4 4 3 4 5 7 10 9 10 12 13 14 15 15 16 17 19 18 18 19 18 18 19 20 19 22 21 23 24 24 24 23 22 21 21 20 20 19 19 18 19 19 20 20 20 20
8 2 3 9 10 8 10 nan nan nan 8 14 15 12 11 8 8 6 3 0 2 6 1 2 8 9 4 4 11 9 12 14 11 10 8 8 7 8 8 8 9 10 8 5 2 1 0 2 1 2 4 4 4 5 6 7 9 8 8 9 10 12 14 15 16 16 18 19 19 19 18 19 18 19 20 20 18 19 19 23 23 23 22 21 21 20 19 18 18 17 17 17 18 18 19 17 18
6 5 1 10 4 5 4 8 nan 6 11 16 13 12 15 14 13 11 8 7 10 5 2 4 8 10 9 9 12 10 11 14 13 10 11 10 8 11 10 10 10 10 8 4 1 1 2 2 3 3 4 5 5 6 6 7 9 9 9 10 11 13 15 16 16 17 17 17 19 18 19 19 18 18 18 19 18 20 21 23 23 23 22 21 21 20 19 17 16 17 17 16 17 17 15 15 16
4 6 3 10 6 6 6 8 nan nan 9 11 10 10 10 11 8 9 9 12 13 13 10 5 9 10 12 11 12 10 9 12 11 10 12 10 9 10 11 12 11 10 8 3 2 1 3 3 4 5 5 5 5 6 7 8 9 9 9 10 11 12 15 15 15 15 16 17 18 19 18 18 18 17 20 21 21 18 19 21 22 22 21 19 20 17 16 16 17 16 16 16 14 13 13 14 15
8 4 4 8 5 7 9 9 nan nan 9 7 8 9 9 13 9 11 12 11 13 11 13 20 14 16 15 14 13 12 10 10 10 10 10 9 8 6 7 8 9 8 5 4 3 1 3 4 5 6 6 6 5 6 7 8 9 9 10 10 12 13 14 15 15 15 16 17 17 17 17 17 16 16 18 18 18 18 17 18 18 18 17 18 17 17 16 16 16 16 14 13 14 13 13 14 14
12 5 7 10 11 10 8 9 nan nan 6 5 6 13 16 9 9 14 21 16 14 16 17 10 18 19 20 18 15 12 11 10 10 10 9 10 10 8 8 7 6 5 4 3 1 2 3 5 6 7 7 7 6 7 7 8 8 10 10 10 12 14 14 14 15 15 16 16 16 16 16 15 15 16 17 18 18 17 17 18 18 17 17 18 17 18 17 16 16 15 15 14 14 13 12 13 14
10 8 8 8 9 9 6 7 nan nan 5 7 10 14 7 18 17 18 23 20 12 10 9 11 16 21 21 21 19 14 12 12 12 11 10 10 9 7 7 6 7 6 2 3 3 4 4 6 7 7 8 7 7 7 8 9 9 10 10 10 11 14 14 14 15 15 15 15 15 14 14 14 14 15 17 17 18 16 17 17 17 16 17 17 16 16 17 16 15 15 14 15 14 13 12 13 14
10 11 10 10 6 6 9 nan nan nan 5 15 12 7 14 19 20 18 23 15 5 9 12 13 14 16 20 21 20 19 16 14 13 12 12 12 12 11 9 8 5 4 4 3 4 5 6 6 7 7 8 7 7 7 8 9 9 9 9 10 12 13 14 15 15 15 14 14 14 14 13 12 13 14 16 16 17 15 16 16 15 16 15 16 15 15 16 15 15 14 15 15 14 13 14 13 14
8 12 11 16 14 11 nan nan nan nan nan 9 6 11 18 23 16 12 25 17 8 14 16 18 18 19 18 18 17 15 13 10 10 11 8 6 8 8 5 3 4 3 3 4 5 6 6 7 7 8 8 7 7 7 8 9 9 9 9 10 11 13 14 15 14 13 14 13 13 13 13 12 12 13 14 15 14 15 15 15 15 15 15 15 15 15 15 16 16 15 14 13 12 12 12 13 13
13 13 18 18 15 nan nan nan nan nan nan 5 8 16 18 15 8 21 25 14 12 14 17 20 22 23 21 17 15 15 14 14 11 10 10 7 7 7 5 4 2 0 3 4 6 7 8 7 7 7 7 7 7 7 8 8 9 9 9 10 11 13 14 13 13 13 13 13 13 12 13 13 13 13 14 14 13 15 14 14 14 14 14 14 14 16 15 16 16 15 14 11 10 11 14 12 13
nan 18 14 14 12 nan nan nan nan nan nan 6 9 15 15 14 11 23 17 16 14 17 18 19 22 25 23 17 12 11 14 15 15 10 8 6 6 4 4 3 2 2 4 5 7 8 8 7 7 8 7 7 7 8 8 9 9 10 10 10 11 13 12 12 13 13 13 13 13 12 12 13 14 13 13 13 12 13 13 13 14 12 13 13 13 15 14 15 14 14 13 9 10 12 12 12 12
nan nan nan nan nan nan nan nan nan nan nan nan 11 16 13 12 16 24 17 16 20 21 20 20 20 21 21 19 15 12 10 10 9 10 12 9 3 2 2 3 3 4 4 5 8 8 7 7 7 7 7 7 8 9 9 9 10 11 11 11 12 12 11 12 12 12 12 12 12 12 12 12 14 13 12 12 12 12 13 13 14 12 13 11 11 12 12 12 12 11 10 9 9 10 10 10 10
nan nan nan nan nan nan nan nan nan nan nan nan 6 6 9 11 26 15 15 17 20 24 24 24 22 21 18 17 14 13 12 10 8 7 8 5 3 1 4 3 4 5 8 6 7 7 6 6 6 7 7 7 8 9 9 10 10 11 11 11 11 11 11 11 11 11 11 11 11 11 12 12 12 12 12 12 12 12 13 13 13 13 12 10 10 11 11 10 9 10 9 8 7 8 8 7 8
nan nan nan nan nan nan nan nan nan nan nan nan nan 9 14 21 18 11 17 18 18 21 25 27 23 21 18 16 14 13 12 11 9 7 5 4 4 4 3 2 5 7 7 8 7 6 6 7 7 7 7 7 8 9 10 10 10 11 11 10 10 10 10 10 10 10 10 10 10 11 11 11 12 11 11 13 12 12 13 13 13 12 11 11 11 11 11 10 10 10 9 7 7 6 7 5 5
nan nan nan nan nan nan nan nan nan nan nan nan nan nan nan nan nan 15 18 20 24 25 27 28 26 23 20 18 14 14 14 12 10 7 5 4 2 2 3 2 4 6 7 7 5 4 5 5 5 7 6 7 7 8 9 9 10 10 10 9 9 8 9 9 9 9 8 9 8 10 11 11 12 12 11 12 12 12 12 12 12 12 11 10 11 11 12 11 11 12 9 6 4 6 5 5 3
nan nan nan nan nan nan nan nan nan nan nan nan nan nan nan nan nan 15 17 21 23 25 27 28 27 25 22 20 17 14 14 12 9 6 6 4 3 3 4 2 2 4 4 4 5 5 4 4 3 5 5 6 7 7 8 9 8 9 9 9 8 7 8 8 7 7 7 7 8 9 10 10 11 11 11 11 12 11 11 11 11 10 10 9 11 10 11 12 12 11 8 8 8 2 3 3 2
nan nan nan nan nan nan nan nan nan nan nan nan nan nan nan nan nan 12 16 21 23 22 26 28 29 28 24 21 18 15 13 11 8 6 6 5 3 2 2 1 2 3 4 3 3 3 3 3 3 4 5 6 6 7 7 8 8 7 7 7 6 6 6 7 7 6 6 6 7 8 9 10 11 10 10 10 11 10 10 9 9 9 9 10 11 11 11 11 11 10 7 6 8 7 4 2 2
nan nan nan nan nan nan nan nan nan nan nan nan nan nan nan nan 10 11 15 20 21 21 25 27 29 28 25 21 19 17 14 12 11 8 7 4 2 3 1 2 2 2 3 3 2 1 1 2 3 4 5 5 5 6 7 7 7 7 6 6 6 6 6 6 6 5 6 6 6 8 8 9 10 9 9 9 10 9 9 8 8 9 9 10 10 11 11 9 8 7 6 5 5 6 5 3 2
nan nan nan nan nan nan nan nan nan nan nan nan nan nan nan 18 12 12 16 19 22 23 24 27 29 29 25 21 19 18 15 14 13 9 8 5 2 2 1 2 3 2 3 2 1 1 3 2 4 4 4 4 5 6 6 7 7 7 7 6 6 6 6 5 4 5 5 6 7 9 9 9 9 8 9 8 9 9 8 8 9 10 10 11 11 10 10 8 7 5 4 3 4 4 5 6 5
nan nan nan nan nan nan nan nan nan nan nan nan nan nan nan 16 14 12 12 17 20 21 18 18 23 25 25 20 18 18 17 17 11 8 8 5 1 2 3 4 3 3 2 2 1 1 0 1 3 5 5 4 5 5 6 6 6 6 6 7 7 6 5 5 5 5 5 7 8 9 9 9 9 8 8 8 9 9 9 10 11 11 11 11 11 10 9 8 8 6 4 4 3 2 4 4 5
nan nan nan nan nan nan nan nan nan nan nan nan nan nan nan nan 12 11 10 11 15 13 16 19 21 24 25 21 18 18 18 19 13 10 8 7 4 0 4 5 4 3 2 2 2 2 2 2 3 5 5 4 5 5 5 5 4 5 6 6 6 5 5 5 5 6 6 7 8 8 8 8 8 7 7 7 9 9 10 11 12 11 10 10 10 11 11 10 7 5 4 3 5 4 4 4 5
nan nan nan nan nan nan nan nan nan nan nan nan nan nan nan nan 13 9 7 10 16 16 16 18 20 23 23 23 19 19 18 10 10 9 8 6 4 3 1 5 5 2 2 1 2 3 2 3 4 5 5 5 6 5 4 4 4 4 4 5 6 6 4 4 6 6 7 7 7 7 7 6 6 7 7 8 9 10 10 11 12 11 10 9 10 9 9 9 9 8 6 5 4 7 8 8 7
nan nan nan nan nan nan nan nan nan nan nan nan nan nan nan nan 9 12 9 13 14 14 17 20 21 22 21 22 20 16 12 13 11 10 9 7 7 4 1 2 4 2 1 1 1 1 2 3 5 4 5 5 6 5 4 5 4 4 3 3 3 5 6 5 6 6 6 6 7 6 6 5 6 7 8 9 10 11 12 12 11 10 10 9 9 10 9 10 11 11 10 10 9 6 7 6 8
nan nan nan nan nan nan nan nan nan nan nan nan nan nan nan nan 14 9 11 10 8 11 14 14 16 21 22 25 24 17 15 13 13 14 13 9 8 5 2 1 2 3 4 3 1 3 2 3 4 4 4 5 5 5 6 5 4 3 2 2 2 3 5 6 6 7 5 4 6 5 4 4 6 7 8 10 10 12 12 11 10 10 10 9 10 10 9 10 10 10 9 10 8 10 8 8 8
nan nan nan nan nan nan nan nan nan nan nan nan nan nan nan nan 17 16 11 7 11 12 15 18 16 15 13 11 12 12 14 15 13 12 11 10 9 8 6 2 2 2 1 0 2 2 2 4 4 4 3 4 4 5 6 4 2 1 1 4 5 3 6 6 5 5 3 3 2 2 5 4 5 6 8 10 11 12 12 10 11 10 10 10 9 9 9 10 10 10 11 11 12 12 10 8 7
nan nan nan nan nan nan nan nan nan nan nan nan nan nan nan nan nan 10 12 10 12 11 12 18 17 13 11 13 16 12 9 8 11 13 14 13 11 7 5 4 3 2 2 2 2 2 2 2 2 2 1 2 4 6 6 3 3 3 2 2 1 1 1 1 3 2 2 1 3 0 2 3 5 6 8 9 11 11 10 10 10 10 10 11 11 9 9 8 9 11 12 13 14 13 13 nan nan
nan nan nan nan nan nan nan nan nan nan nan nan nan nan nan nan nan nan 15 7 10 12 14 18 16 14 14 13 12 13 11 9 9 9 9 9 9 7 8 9 10 8 6 3 1 1 2 3 2 4 4 3 3 4 6 4 3 3 5 5 4 4 3 3 3 5 2 2 3 2 2 4 6 7 8 9 11 11 10 10 11 11 10 11 11 10 10 11 11 12 12 14 15 15 14 nan nan
nan nan nan nan nan nan nan nan nan nan nan nan nan nan nan nan nan nan nan 11 9 11 18 20 19 17 16 14 13 13 11 10 9 12 13 12 10 10 11 13 11 11 9 5 4 3 5 4 4 4 3 4 3 4 5 6 5 4 3 3 2 2 3 3 1 3 6 6 3 3 4 3 5 6 8 10 11 12 11 10 10 10 11 11 12 11 11 11 10 10 13 15 14 16 nan nan nan
nan nan nan nan nan nan nan nan nan nan nan nan nan nan nan nan nan nan nan 16 14 14 19 21 21 20 18 16 16 14 13 12 10 10 13 14 13 11 10 9 11 11 7 7 7 6 6 5 4 4 4 5 4 6 6 6 5 5 4 3 2 1 1 1 6 6 5 6 4 5 4 4 5 6 7 10 12 13 12 11 11 11 11 12 11 10 11 12 13 14 14 15 17 nan nan nan nan
nan nan nan nan nan nan nan nan nan nan nan nan nan nan nan nan nan nan nan 11 7 11 17 21 22 20 19 16 16 15 11 9 9 10 10 12 12 12 11 10 9 7 5 7 8 7 7 6 6 6 6 5 6 8 7 7 7 6 5 4 4 3 3 4 8 7 6 6 5 5 5 6 6 6 7 10 12 13 12 11 11 11 11 12 11 10 11 12 13 14 17 18 nan nan nan nan nan
nan nan nan nan nan nan nan nan nan nan nan nan nan nan nan nan nan nan nan nan 4 10 18 22 23 21 20 17 16 15 13 12 10 9 9 9 11 11 9 8 8 5 2 3 4 5 7 7 8 9 9 6 6 8 9 9 8 7 5 6 7 6 5 6 8 8 8 8 6 7 7 6 7 7 8 10 12 13 11 10 10 11 11 11 10 10 11 13 13 16 17 nan nan nan nan nan 17
nan nan nan nan nan nan nan nan nan nan nan nan nan nan nan nan nan nan nan nan nan nan 10 14 18 21 21 17 16 16 14 12 11 9 8 8 7 8 8 9 7 6 4 4 3 4 5 6 7 7 6 5 4 6 8 8 8 7 6 7 8 8 7 6 7 8 9 8 8 8 8 9 8 8 9 10 11 12 11 10 10 11 12 10 9 9 11 12 13 15 17 nan nan nan nan nan nan
nan nan nan nan nan nan nan nan nan nan nan nan nan nan nan nan nan nan nan nan nan nan nan nan nan nan nan 17 17 13 11 10 10 10 8 7 7 8 9 10 9 8 8 8 7 6 5 5 7 8 6 6 5 5 6 7 7 7 7 7 7 7 7 7 8 8 9 9 9 9 11 10 10 9 9 10 11 13 11 10 10 12 12 10 9 10 10 12 14 16 17 nan nan nan nan nan nan
nan nan nan nan nan nan nan nan nan nan nan nan nan nan nan nan nan nan nan nan nan nan nan nan nan nan nan nan nan 11 8 9 10 9 8 7 7 7 8 9 8 8 9 10 9 9 8 7 8 9 9 10 8 7 7 7 8 8 8 8 9 9 8 8 8 8 9 9 10 10 11 12 11 10 10 10 11 12 10 9 10 12 12 10 10 10 10 12 14 16 nan nan nan nan nan nan nan
nan nan nan nan nan nan nan nan nan nan nan nan nan nan nan nan nan nan nan nan nan nan nan nan nan nan nan nan nan nan nan nan 5 4 7 9 8 7 6 7 7 8 9 11 11 10 10 10 10 10 10 12 13 12 11 10 9 9 9 10 11 11 10 10 9 9 10 11 11 11 11 12 11 10 11 11 14 13 10 8 10 12 11 10 10 9 9 11 13 14 15 nan nan nan nan nan nan
nan nan nan nan nan nan nan nan nan nan nan nan nan nan nan nan nan nan nan nan nan nan nan nan nan nan nan nan nan nan nan nan nan nan nan 9 10 9 7 7 7 8 11 12 13 13 12 11 12 12 13 14 15 15 13 12 11 10 11 11 12 13 12 12 12 12 11 11 12 12 12 13 12 11 12 14 15 15 11 9 10 11 11 10 9 10 10 11 13 14 nan nan 18 18 nan nan nan
nan nan nan nan nan nan nan nan nan nan nan nan nan nan nan nan nan nan nan nan nan nan nan nan nan nan nan nan nan nan nan nan nan nan nan nan nan nan nan nan 8 10 13 14 15 15 14 12 11 12 12 12 13 14 13 12 11 11 11 12 13 13 14 14 14 14 13 13 14 13 13 13 13 12 12 14 17 16 14 11 11 11 10 9 9 9 10 11 13 14 nan nan 18 nan nan nan nan
nan nan nan nan nan nan nan nan nan nan nan nan nan nan nan nan nan nan nan nan nan nan nan nan nan nan nan nan nan nan nan nan nan nan nan nan nan nan nan nan nan 10 13 14 14 15 13 12 12 12 12 12 11 11 10 10 11 11 11 12 13 13 14 14 15 16 16 16 15 16 16 16 13 12 13 14 17 18 16 13 12 12 9 8 8 8 10 11 12 13 15 15 nan nan nan nan nan
nan nan nan nan nan nan nan nan nan nan nan nan nan nan nan nan nan nan nan nan nan nan nan nan nan nan nan nan nan nan nan nan nan nan nan nan nan nan nan nan nan 10 11 12 14 16 15 13 11 10 11 11 11 10 10 10 10 10 11 12 13 14 14 15 16 18 19 16 15 17 18 16 16 15 14 15 17 18 17 15 15 13 10 8 7 7 9 10 11 13 13 14 16 nan nan nan nan
nan nan nan nan nan nan nan nan nan nan nan nan nan nan nan nan nan nan nan nan nan nan nan nan nan nan nan nan nan nan nan nan nan nan nan nan nan nan nan nan nan nan 10 11 14 16 16 15 12 9 7 7 7 7 8 9 10 10 11 12 13 14 15 16 17 19 18 16 16 18 19 19 18 16 14 15 16 19 19 18 16 14 11 8 8 7 7 9 10 11 12 14 16 nan nan nan nan
nan nan nan nan nan nan nan nan nan nan nan nan nan nan nan nan nan nan nan nan nan nan nan nan nan nan nan nan nan nan nan nan nan nan nan nan nan nan nan nan nan nan nan 13 17 17 15 16 13 10 10 9 8 9 10 10 11 11 12 12 13 13 14 16 17 18 17 17 18 19 20 20 21 17 16 15 16 18 19 19 19 16 12 10 8 7 6 8 9 10 11 14 15 nan nan nan nan
nan nan nan nan nan nan nan nan nan nan nan nan nan nan nan nan nan nan nan nan nan nan nan nan nan nan nan nan nan nan nan nan nan nan nan nan nan nan nan nan nan nan nan 16 17 16 16 16 13 12 10 8 8 9 10 12 13 13 14 13 12 12 13 15 15 17 16 17 18 19 21 23 20 18 17 15 15 17 19 20 20 17 13 11 9 7 7 7 8 9 10 12 15 19 21 nan nan
Wind_Direction
11 40 66 67 72 81 85 96 98 92 nan 96 102 85 90 89 90 94 81 79 75 79 87 195 335 84 115 109 nan 124 129 nan 110 nan nan nan 97 81 101 103 115 141 135 114 105 111 119 83 318 310 303 301 299 298 297 299 299 297 295 297 303 311 321 324 325 328 329 328 323 319 320 322 325 328 328 331 336 342 345 345 337 332 319 311 300 295 318 351 310 292 224 133 107 62 359 320 316
31 38 55 61 66 91 96 100 101 101 102 107 nan 83 88 85 94 79 80 59 nan 57 73 58 147 164 167 164 106 124 139 137 126 125 128 110 74 102 83 63 81 107 124 118 127 130 128 94 324 316 313 310 307 305 301 302 301 298 299 303 309 323 328 327 330 331 329 324 318 321 325 327 331 334 340 347 350 353 352 347 342 334 326 312 304 300 325 357 320 304 339 33 59 64 314 309 298
11 19 47 64 98 101 114 101 106 nan nan nan nan nan 96 92 nan 92 76 68 53 33 51 115 174 156 143 137 129 129 117 132 134 127 129 71 38 84 49 36 61 303 220 146 141 139 133 111 326 321 318 313 314 309 306 304 303 302 305 310 323 333 333 334 333 330 326 319 320 327 332 335 340 347 351 355 358 360 359 355 351 342 327 316 308 318 333 351 333 320 354 23 38 32 299 263 311
356 39 47 71 76 94 102 102 106 101 nan nan nan nan 88 nan nan 92 99 59 30 24 50 47 104 120 127 137 124 150 143 114 102 31 91 50 116 93 56 9 350 245 209 164 151 155 144 36 331 328 321 319 316 308 306 306 306 308 312 324 335 338 337 335 332 328 321 321 328 335 340 346 350 353 357 359 357 359 0 358 348 335 318 306 302 303 330 351 334 335 353 18 25 50 321 309 323
32 54 65 103 91 87 90 97 98 105 100 nan nan nan 101 nan 101 103 103 71 41 48 58 91 113 129 132 125 107 105 91 142 35 96 118 134 171 93 54 299 292 286 242 167 164 161 129 352 336 328 324 321 314 307 306 308 311 314 323 335 340 340 338 335 330 323 322 329 338 344 347 350 353 356 360 359 358 1 4 358 342 321 305 296 289 287 17 73 325 339 360 9 18 21 19 11 344
213 73 82 105 91 97 92 91 94 95 nan nan nan nan nan nan 104 90 84 91 89 96 91 109 102 95 131 127 119 86 339 23 14 64 48 112 333 324 273 222 262 251 228 191 180 170 78 345 335 331 327 321 313 309 309 313 319 325 335 341 341 340 337 334 328 325 330 340 347 348 350 351 355 1 1 1 4 10 11 9 358 338 321 307 298 303 25 74 35 2 17 11 9 9 4 359 347
314 144 97 98 104 100 104 96 102 nan 109 nan nan nan 98 109 89 73 95 135 132 144 120 113 119 164 152 120 145 137 105 323 356 13 141 313 318 303 290 221 237 235 236 224 194 201 335 338 337 336 329 322 316 314 318 324 330 336 341 342 340 340 338 335 331 333 341 348 350 351 350 354 0 4 4 6 9 10 13 16 13 10 8 359 330 305 153 85 63 34 27 42 35 22 3 350 355
109 132 83 116 153 150 106 99 101 106 119 nan nan nan 96 59 62 81 77 116 90 116 119 87 120 174 152 130 111 126 148 126 276 280 285 303 322 301 291 289 259 247 259 233 211 240 336 338 339 338 331 325 321 324 327 333 340 344 345 344 342 343 344 341 339 343 348 353 357 356 357 3 7 9 10 12 11 9 8 12 28 38 48 55 54 60 66 62 73 87 27 34 49 58 35 350 356
120 131 140 150 159 136 111 97 108 121 123 134 123 120 57 337 59 36 100 136 145 147 61 65 108 164 140 194 138 136 142 283 286 303 307 307 322 315 278 317 314 297 279 268 263 283 331 340 339 340 335 329 331 335 338 343 348 349 350 349 347 349 349 344 348 352 358 6 10 10 9 14 17 20 21 17 16 12 18 38 58 67 77 80 81 80 79 83 89 127 39 26 42 54 61 43 16
155 135 140 153 138 115 120 nan nan nan 133 132 114 126 305 307 177 159 168 145 123 123 123 122 147 159 290 222 141 129 89 324 307 311 312 314 318 317 307 320 327 321 305 293 291 298 326 344 339 341 339 338 342 346 348 353 356 353 354 355 355 354 351 352 0 6 13 19 24 25 25 29 32 35 35 37 37 45 62 76 84 89 90 93 95 95 93 93 98 98 93 55 41 47 55 55 50
171 148 143 129 121 120 114 nan nan nan nan nan 148 nan 306 270 253 183 156 157 122 108 103 86 182 320 243 212 151 160 318 333 321 323 319 321 320 323 313 317 330 325 321 316 306 302 315 350 341 343 344 346 351 352 356 360 358 356 357 360 1 358 357 3 15 22 27 32 37 37 39 44 49 53 58 62 67 73 83 91 97 98 96 95 93 91 95 98 101 99 89 84 71 60 60 59 56
176 147 139 104 92 74 93 113 nan nan nan nan nan 256 281 288 244 209 156 60 108 95 85 73 37 18 230 215 144 188 290 4 326 316 313 314 309 306 296 310 329 329 326 321 314 305 303 304 355 347 350 353 357 0 2 2 358 358 1 5 8 7 9 17 27 36 42 43 45 48 55 61 66 69 72 76 80 84 89 94 98 99 99 99 99 98 98 98 94 93 87 80 77 74 65 58 53
182 149 133 115 80 73 93 118 111 145 162 nan nan 231 290 303 331 336 49 110 86 62 77 95 348 100 212 132 178 293 331 359 321 314 309 301 301 307 296 314 328 334 332 325 318 310 298 285 337 13 5 358 4 8 5 1 359 1 8 14 21 22 25 34 41 46 49 52 56 63 70 75 75 78 80 83 86 88 91 93 94 96 98 99 100 99 96 95 86 81 77 76 74 74 70 63 56
180 123 128 99 86 80 96 93 88 109 nan nan nan 286 319 315 343 326 331 51 68 68 99 356 29 312 255 313 344 342 347 325 318 312 303 296 293 296 310 314 331 337 337 329 323 307 299 306 336 80 29 25 54 21 8 1 4 9 19 29 33 36 40 45 49 52 56 62 71 75 78 80 82 84 85 86 87 89 91 92 93 95 96 98 99 100 97 94 88 82 77 75 76 77 73 66 61
162 154 154 105 99 101 94 75 59 nan nan 188 255 316 286 169 293 330 352 10 77 116 96 57 62 4 66 15 19 357 329 320 318 314 304 293 290 295 306 318 329 336 337 331 317 305 305 315 12 110 86 95 68 81 74 21 12 24 31 38 41 44 48 51 55 62 68 74 80 80 82 83 87 87 88 88 89 90 90 91 94 97 98 99 101 99 98 95 92 88 83 79 78 78 76 70 65
179 188 176 124 97 101 97 77 nan nan nan 18 16 320 245 180 323 337 45 80 89 131 349 58 95 107 83 74 66 333 314 306 306 308 293 288 278 275 291 312 324 332 335 326 312 307 279 324 326 134 106 113 101 115 106 95 40 37 43 44 47 50 54 58 64 72 78 82 84 87 88 95 94 96 90 93 92 91 92 92 93 96 97 98 100 99 97 95 93 90 85 81 81 78 75 74 69
226 206 157 126 109 92 91 nan nan nan nan 24 1 341 343 19 68 128 70 149 318 6 41 113 55 140 17 109 326 316 307 300 294 291 281 270 270 271 283 299 314 323 330 326 301 309 308 355 153 147 107 118 117 121 123 110 89 52 63 53 52 57 64 67 74 79 85 89 94 95 97 107 113 111 109 106 96 99 94 94 95 95 96 97 97 96 94 93 91 92 90 85 81 77 76 73 70
257 215 140 98 92 105 83 nan nan nan 12 26 5 358 332 344 30 53 316 194 192 324 149 257 197 201 230 283 299 309 305 305 305 301 284 276 273 287 303 311 316 329 329 316 290 318 66 106 110 122 121 111 126 130 127 116 116 80 110 97 91 81 79 82 92 105 98 109 98 106 115 115 113 111 109 106 101 100 104 100 98 96 96 97 96 95 93 92 92 92 88 84 80 79 79 70 76
254 218 180 100 93 93 88 87 nan 86 58 25 21 7 358 6 353 26 359 12 342 335 283 263 250 247 259 286 299 313 319 311 311 306 307 307 303 315 316 314 319 318 326 308 262 22 96 111 128 125 117 120 122 125 124 117 116 127 113 106 104 90 98 101 110 106 116 112 120 117 118 117 113 107 106 101 97 94 92 95 95 96 96 96 97 96 95 94 93 90 91 86 81 77 74 68 65
189 223 141 111 104 138 115 123 nan nan 51 40 32 33 14 11 11 22 6 358 2 359 335 291 292 294 301 302 307 314 322 315 310 306 315 318 316 316 317 324 321 324 324 311 288 152 107 107 116 127 115 119 119 124 125 121 123 125 117 114 111 112 110 116 113 118 115 117 118 121 119 116 113 109 106 100 98 101 97 95 95 95 98 100 98 94 96 94 94 92 90 90 81 75 67 69 64
206 178 151 147 116 100 120 81 nan nan 42 53 48 51 42 28 20 17 340 338 31 31 19 341 338 323 316 317 315 317 320 319 311 306 311 313 309 300 309 317 316 311 301 253 222 124 104 114 129 126 122 118 109 116 116 120 127 126 120 116 116 118 117 122 118 119 119 118 120 122 120 115 115 113 114 113 110 104 104 98 96 94 91 89 89 87 84 83 83 83 83 79 75 76 75 73 67
205 98 109 132 155 171 131 146 nan nan 74 19 53 41 57 41 44 29 351 359 21 25 24 24 328 325 322 322 323 318 322 322 317 310 318 319 320 314 300 291 282 283 264 228 178 136 108 122 122 128 120 112 102 111 117 119 127 123 118 118 119 121 121 121 123 121 123 121 121 121 120 117 118 112 110 109 104 103 99 96 93 92 92 87 84 82 80 78 78 77 79 79 76 70 68 69 67
156 163 122 126 139 137 185 153 nan nan 92 49 49 70 74 41 48 36 13 15 47 37 6 341 341 337 332 320 318 322 325 327 328 323 317 317 316 312 309 306 317 318 250 189 175 148 135 127 126 131 113 117 107 121 132 122 123 126 124 121 119 121 125 125 125 125 123 121 117 117 112 109 107 106 105 104 103 101 95 92 89 86 83 81 80 79 80 78 76 75 75 75 75 73 67 61 62
160 158 178 151 174 110 149 nan nan nan 23 56 76 93 55 55 58 43 33 38 52 345 342 336 332 327 324 325 333 332 335 336 339 333 332 336 335 334 329 335 328 264 212 183 158 148 140 117 127 125 118 112 115 124 125 120 127 127 124 115 119 121 125 125 125 124 124 119 114 111 109 105 101 99 100 98 97 96 91 87 82 79 76 74 72 69 75 75 73 71 69 70 70 63 60 52 52
178 153 161 156 170 171 nan nan nan nan nan 68 87 72 67 53 66 38 48 40 15 343 334 331 328 328 330 328 334 331 332 333 336 333 323 324 333 322 324 321 310 250 190 165 157 145 126 136 138 126 122 109 123 121 117 123 129 129 124 120 121 115 126 124 125 127 120 119 113 107 104 102 101 99 96 94 95 91 89 85 79 76 71 70 69 69 64 68 68 67 67 66 62 60 55 51 49
191 167 185 178 180 nan nan nan nan nan nan 56 78 79 74 73 105 60 51 41 13 344 336 337 332 331 335 336 335 334 339 343 334 331 338 328 329 328 343 346 314 160 146 168 152 137 138 138 131 124 118 123 124 119 126 125 126 124 123 122 126 120 122 126 124 120 118 114 110 106 103 100 100 96 94 95 89 91 88 84 79 74 70 69 65 66 59 58 62 66 66 52 43 50 61 57 54
nan 210 192 177 173 nan nan nan nan nan nan 10 53 69 83 84 78 90 67 36 3 353 350 350 344 342 337 332 331 335 338 343 346 329 320 326 332 347 353 2 40 144 179 149 148 143 141 137 129 127 130 120 133 120 128 127 128 124 124 129 128 123 125 123 121 119 116 113 110 105 103 99 99 97 95 93 90 88 89 86 80 75 71 65 59 62 56 54 56 58 63 54 42 43 54 58 59
nan nan nan nan nan nan nan nan nan nan nan nan 28 53 64 83 96 77 63 30 5 358 360 358 358 351 343 335 330 327 334 337 335 337 338 332 337 360 14 57 97 172 161 145 154 156 147 126 126 127 125 127 120 118 125 131 126 125 126 131 123 126 125 124 121 119 113 113 108 104 102 101 98 97 94 94 89 87 85 82 80 72 70 64 58 60 56 53 51 55 47 49 45 45 48 55 60
nan nan nan nan nan nan nan nan nan nan nan nan 3 147 115 91 72 75 62 35 15 3 3 2 1 359 352 338 325 327 334 331 338 338 344 342 330 354 38 104 148 160 162 159 166 160 134 133 130 122 124 123 114 112 125 132 135 132 129 126 126 125 125 123 120 116 114 109 107 100 98 98 100 97 95 91 91 86 85 82 78 70 69 63 54 52 49 44 39 42 43 30 51 55 50 62 68
nan nan nan nan nan nan nan nan nan nan nan nan nan 116 97 75 81 74 53 39 25 12 9 6 6 1 353 346 337 328 325 323 339 352 343 350 354 6 34 116 151 158 171 173 173 150 155 155 144 142 125 117 111 120 129 137 135 133 132 134 125 127 124 120 114 116 111 106 102 93 94 94 96 95 93 94 90 87 84 80 77 73 63 54 46 40 38 27 26 27 31 14 30 47 66 62 73
nan nan nan nan nan nan nan nan nan nan nan nan nan nan nan nan nan 73 50 36 23 19 15 11 6 4 357 352 346 339 338 341 344 350 9 9 9 21 21 164 151 155 179 180 150 152 162 155 154 143 124 119 120 119 119 128 136 135 137 135 132 128 126 121 119 114 109 104 98 93 90 93 93 90 89 89 87 83 82 79 72 66 58 43 35 31 25 16 13 19 14 352 356 54 63 67 69
nan nan nan nan nan nan nan nan nan nan nan nan nan nan nan nan nan 52 47 43 31 23 17 13 7 6 3 355 352 348 348 353 1 9 21 17 25 33 11 38 148 164 173 175 165 179 155 155 141 132 121 110 114 117 122 125 128 132 136 137 137 132 129 123 121 117 115 107 98 93 89 94 93 89 86 81 81 78 74 69 64 58 47 25 21 14 4 8 10 11 4 344 20 50 60 65 104
nan nan nan nan nan nan nan nan nan nan nan nan nan nan nan nan nan 58 50 40 38 28 20 15 10 6 6 2 354 352 348 3 21 30 32 25 41 60 39 79 160 172 175 177 178 186 169 144 133 118 103 94 107 116 125 130 133 132 131 131 130 132 125 123 124 124 118 112 103 98 95 94 91 86 81 76 73 70 63 58 51 37 19 9 3 358 359 358 360 4 353 345 335 2 16 85 123
nan nan nan nan nan nan nan nan nan nan nan nan nan nan nan nan 79 53 55 43 40 37 26 19 12 7 7 5 356 352 357 3 21 23 24 38 92 46 71 141 177 187 150 161 194 218 174 165 152 134 133 112 121 124 124 127 132 136 141 137 137 128 120 126 130 126 115 114 113 106 103 95 91 82 75 69 66 59 47 37 27 12 359 352 349 347 357 345 343 347 3 334 326 327 323 357 31
nan nan nan nan nan nan nan nan nan nan nan nan nan nan nan 139 106 56 47 42 36 38 31 22 14 7 3 6 360 353 357 8 22 15 3 12 54 81 118 173 176 160 168 176 220 210 201 184 169 140 134 126 118 124 128 131 139 149 155 148 136 133 140 132 130 123 117 120 114 106 103 97 92 80 68 55 50 44 27 13 5 359 347 343 341 347 350 344 338 335 2 353 330 329 334 345 332
nan nan nan nan nan nan nan nan nan nan nan nan nan nan nan 135 117 94 64 43 40 44 37 28 19 8 360 2 5 356 358 13 10 8 358 351 48 131 148 178 167 154 194 224 337 325 168 150 143 144 132 129 133 131 139 137 146 149 148 154 143 139 143 141 128 116 121 113 107 102 99 96 91 80 63 48 38 27 7 356 356 348 344 335 342 351 358 354 4 5 21 13 19 339 341 335 325
nan nan nan nan nan nan nan nan nan nan nan nan nan nan nan nan 113 88 66 59 63 56 38 29 19 10 360 0 11 4 2 14 359 4 7 358 357 133 162 174 167 159 188 308 352 19 41 94 119 104 122 129 128 124 124 123 124 142 143 125 124 141 141 140 123 119 118 112 102 100 96 94 86 72 56 36 29 18 1 349 347 345 340 344 353 10 9 11 12 6 23 16 19 31 34 357 1
nan nan nan nan nan nan nan nan nan nan nan nan nan nan nan nan 143 128 114 73 54 42 38 31 20 16 4 357 8 9 10 355 352 356 14 9 357 359 190 173 170 155 117 334 358 12 59 101 94 104 130 116 104 101 111 110 109 108 122 128 142 146 144 119 117 125 123 124 110 103 97 87 70 53 39 25 19 7 354 347 349 351 348 358 8 9 17 23 24 28 23 50 30 32 40 17 8
nan nan nan nan nan nan nan nan nan nan nan nan nan nan nan nan 183 157 107 66 62 49 34 27 18 19 10 359 5 10 355 4 359 2 6 13 7 7 25 164 157 117 84 10 354 332 61 86 91 96 99 91 89 84 90 88 101 105 93 144 116 142 146 143 144 146 153 126 111 99 88 73 50 40 23 11 7 2 359 353 354 352 357 359 3 15 24 33 35 34 33 39 45 39 44 26 9
nan nan nan nan nan nan nan nan nan nan nan nan nan nan nan nan 199 151 113 91 102 83 70 61 41 24 15 6 1 6 8 0 6 1 2 12 13 14 36 118 157 182 184 179 243 8 29 64 73 66 70 71 77 64 63 71 70 89 120 167 159 134 160 172 172 175 161 142 97 87 80 52 32 24 11 4 0 0 358 358 349 351 356 358 1 7 20 35 34 32 29 34 21 37 33 34 7
nan nan nan nan nan nan nan nan nan nan nan nan nan nan nan nan 209 169 146 145 153 139 127 116 97 67 43 19 355 3 13 6 5 358 356 10 18 23 23 22 215 199 154 72 347 349 249 1 21 24 35 38 51 48 44 51 76 102 174 208 214 194 181 189 187 159 150 118 113 74 53 24 13 9 360 357 352 358 358 355 349 349 347 355 350 360 12 24 21 18 11 9 12 13 22 20 5
nan nan nan nan nan nan nan nan nan nan nan nan nan nan nan nan nan 174 196 191 134 141 109 91 84 69 41 23 6 359 30 23 7 6 4 6 16 23 29 15 10 37 40 47 13 355 302 281 317 339 1 11 19 22 16 4 22 7 309 312 343 337 76 130 92 96 187 110 68 49 287 339 352 354 351 350 349 344 348 348 346 341 341 346 351 355 359 356 5 4 6 3 6 9 1 nan nan
nan nan nan nan nan nan nan nan nan nan nan nan nan nan nan nan nan nan 208 186 126 156 118 98 97 85 56 40 13 355 9 24 17 12 5 10 16 17 26 22 25 24 29 4 326 331 320 266 305 339 350 355 353 353 352 342 342 356 5 12 20 14 24 88 159 199 215 200 223 275 312 310 342 339 337 339 339 338 337 339 341 341 336 335 346 347 1 10 359 2 353 359 7 356 346 nan nan
nan nan nan nan nan nan nan nan nan nan nan nan nan nan nan nan nan nan nan 203 167 149 123 114 107 92 69 54 35 8 359 15 21 14 9 16 14 12 19 28 28 29 21 357 353 337 344 341 328 341 332 338 334 331 341 338 335 336 342 8 18 17 27 57 251 216 230 241 247 262 268 294 317 331 332 330 331 330 329 332 334 331 329 335 340 353 6 2 349 349 356 1 353 353 nan nan nan
nan nan nan nan nan nan nan nan nan nan nan nan nan nan nan nan nan nan nan 213 182 144 121 116 106 90 77 66 53 30 5 5 19 18 11 12 17 20 25 34 40 34 16 6 3 349 350 350 341 336 338 334 332 339 335 335 323 323 335 330 328 270 286 198 240 242 242 244 263 251 266 279 293 313 326 320 324 325 332 334 330 325 325 332 341 353 6 358 354 349 351 352 354 nan nan nan nan
nan nan nan nan nan nan nan nan nan nan nan nan nan nan nan nan nan nan nan 220 175 125 114 111 104 92 83 77 66 48 19 1 17 33 23 13 15 22 25 31 38 47 30 12 1 340 338 328 339 343 353 333 330 342 343 339 334 316 322 328 344 310 276 252 254 259 258 254 264 266 261 265 278 289 305 316 319 326 326 331 331 330 323 322 343 357 358 357 350 352 354 353 nan nan nan nan nan
nan nan nan nan nan nan nan nan nan nan nan nan nan nan nan nan nan nan nan nan 165 154 151 141 130 120 105 92 74 58 32 11 6 20 26 16 10 15 18 28 32 34 47 24 357 333 324 326 339 347 357 341 334 340 342 349 344 334 332 336 345 343 317 284 270 266 262 261 265 268 273 281 283 289 301 315 323 323 327 329 328 329 320 324 339 349 358 359 352 351 350 nan nan nan nan nan 359
nan nan nan nan nan nan nan nan nan nan nan nan nan nan nan nan nan nan nan nan nan nan 143 126 117 108 102 96 83 64 44 22 4 2 18 12 360 7 3 21 14 6 2 2 350 322 314 314 320 343 346 344 332 334 339 346 346 352 339 335 343 346 325 295 297 293 286 289 284 281 276 273 281 286 297 310 321 325 321 325 324 317 318 323 342 350 355 357 347 347 344 nan nan nan nan nan nan
nan nan nan nan nan nan nan nan nan nan nan nan nan nan nan nan nan nan nan nan nan nan nan nan nan nan nan 107 91 81 62 35 10 1 358 356 1 5 3 18 2 347 349 350 343 327 315 310 318 330 340 336 332 326 338 341 341 344 336 333 334 323 326 316 301 298 287 284 280 280 278 284 287 290 303 317 331 330 324 322 319 317 317 327 341 347 353 342 346 345 346 nan nan nan nan nan nan
nan nan nan nan nan nan nan nan nan nan nan nan nan nan nan nan nan nan nan nan nan nan nan nan nan nan nan nan nan 99 89 56 33 4 349 353 1 358 356 1 350 342 340 338 336 325 312 307 318 330 336 325 326 326 332 333 341 336 327 321 314 309 319 311 300 300 293 285 282 285 284 290 295 310 310 325 321 325 323 325 318 316 315 323 339 348 341 344 343 346 nan nan nan nan nan nan nan
nan nan nan nan nan nan nan nan nan nan nan nan nan nan nan nan nan nan nan nan nan nan nan nan nan nan nan nan nan nan nan nan 75 31 1 357 355 344 334 333 324 325 323 321 316 319 313 317 320 329 324 321 325 329 322 331 327 324 313 312 307 301 307 301 298 293 290 290 283 285 282 283 290 298 311 313 310 320 319 306 308 308 314 323 334 341 333 341 343 343 347 nan nan nan nan nan nan
nan nan nan nan nan nan nan nan nan nan nan nan nan nan nan nan nan nan nan nan nan nan nan nan nan nan nan nan nan nan nan nan nan nan nan 10 345 320 303 293 298 300 305 303 311 312 318 323 319 323 326 322 324 326 326 325 319 305 309 309 308 305 297 293 288 285 285 285 284 285 284 283 286 292 297 299 309 314 311 304 300 308 310 321 327 328 333 338 341 346 nan nan 356 350 nan nan nan
nan nan nan nan nan nan nan nan nan nan nan nan nan nan nan nan nan nan nan nan nan nan nan nan nan nan nan nan nan nan nan nan nan nan nan nan nan nan nan nan 286 287 287 301 313 316 325 315 308 314 316 316 325 331 330 318 313 307 308 306 298 297 299 298 295 297 294 280 276 276 278 283 285 287 289 291 297 307 304 300 297 303 305 311 318 324 331 339 341 346 nan nan 358 nan nan nan nan
nan nan nan nan nan nan nan nan nan nan nan nan nan nan nan nan nan nan nan nan nan nan nan nan nan nan nan nan nan nan nan nan nan nan nan nan nan nan nan nan nan 298 301 307 314 312 307 301 308 315 316 329 330 325 325 316 316 313 302 299 292 291 290 290 286 285 281 277 274 271 272 274 283 285 286 287 294 299 301 299 294 295 298 309 312 314 327 335 338 345 348 353 nan nan nan nan nan
nan nan nan nan nan nan nan nan nan nan nan nan nan nan nan nan nan nan nan nan nan nan nan nan nan nan nan nan nan nan nan nan nan nan nan nan nan nan nan nan nan 309 301 303 306 300 290 290 301 315 330 341 335 322 326 318 319 302 293 294 289 281 275 274 274 275 275 279 281 276 277 278 275 277 283 288 292 295 295 295 290 293 293 289 296 311 321 329 337 344 345 354 355 nan nan nan nan
nan nan nan nan nan nan nan nan nan nan nan nan nan nan nan nan nan nan nan nan nan nan nan nan nan nan nan nan nan nan nan nan nan nan nan nan nan nan nan nan nan nan 294 290 289 283 293 297 303 312 320 310 306 320 324 327 325 310 297 284 279 273 270 269 269 272 275 281 280 277 277 276 278 278 285 288 290 293 294 294 292 293 294 288 281 299 308 326 331 343 346 352 351 nan nan nan nan
nan nan nan nan nan nan nan nan nan nan nan nan nan nan nan nan nan nan nan nan nan nan nan nan nan nan nan nan nan nan nan nan nan nan nan nan nan nan nan nan nan nan nan 275 275 286 294 291 299 310 314 319 329 340 332 328 314 315 309 303 291 280 277 268 268 271 275 278 275 275 275 274 272 278 281 284 288 293 296 293 289 286 294 285 294 296 304 316 328 339 349 351 343 nan nan nan nan
nan nan nan nan nan nan nan nan nan nan nan nan nan nan nan nan nan nan nan nan nan nan nan nan nan nan nan nan nan nan nan nan nan nan nan nan nan nan nan nan nan nan nan 268 272 276 281 286 297 303 307 313 337 336 328 320 316 321 330 320 307 292 284 277 279 276 277 275 274 274 273 272 278 279 283 281 286 283 288 294 287 287 287 288 292 301 298 308 322 339 340 330 336 340 345 nan nan